﻿測定場所 (Monitoring sites),日付 (Measurement date),時間 (Measurement time),線量率 最大値 (max) μGy/h,線量率 最小値 (min) μGy/h,線量率 平均値 (average) μGy/h,
江戸川 (Edogawa),2011-12-11,23:01～24:00,0.138,0.125,0.131,
江戸川 (Edogawa),2011-12-11,22:01～23:00,0.139,0.124,0.131,
江戸川 (Edogawa),2011-12-11,21:01～22:00,0.139,0.124,0.132,
江戸川 (Edogawa),2011-12-11,20:01～21:00,0.138,0.124,0.132,
江戸川 (Edogawa),2011-12-11,19:01～20:00,0.140,0.125,0.132,
江戸川 (Edogawa),2011-12-11,18:01～19:00,0.142,0.122,0.131,
江戸川 (Edogawa),2011-12-11,17:01～18:00,0.138,0.126,0.132,
江戸川 (Edogawa),2011-12-11,16:01～17:00,0.141,0.127,0.132,
江戸川 (Edogawa),2011-12-11,15:01～16:00,0.143,0.127,0.133,
江戸川 (Edogawa),2011-12-11,14:01～15:00,0.141,0.124,0.133,
江戸川 (Edogawa),2011-12-11,13:01～14:00,0.139,0.126,0.132,
江戸川 (Edogawa),2011-12-11,12:01～13:00,0.141,0.126,0.133,
江戸川 (Edogawa),2011-12-11,11:01～12:00,0.139,0.126,0.133,
江戸川 (Edogawa),2011-12-11,10:01～11:00,0.138,0.123,0.132,
江戸川 (Edogawa),2011-12-11,09:01～10:00,0.139,0.126,0.132,
江戸川 (Edogawa),2011-12-11,08:01～09:00,0.139,0.124,0.131,
江戸川 (Edogawa),2011-12-11,07:01～08:00,0.137,0.111,0.124,
江戸川 (Edogawa),2011-12-11,06:01～07:00,0.140,0.126,0.131,
江戸川 (Edogawa),2011-12-11,05:01～06:00,0.141,0.126,0.132,
江戸川 (Edogawa),2011-12-11,04:01～05:00,0.140,0.126,0.132,
江戸川 (Edogawa),2011-12-11,03:01～04:00,0.137,0.127,0.132,
江戸川 (Edogawa),2011-12-11,02:01～03:00,0.141,0.126,0.132,
江戸川 (Edogawa),2011-12-11,01:01～02:00,0.139,0.127,0.132,
江戸川 (Edogawa),2011-12-11,00:01～01:00,0.138,0.125,0.131,
江戸川 (Edogawa),2011-12-10,23:01～24:00,0.139,0.119,0.131,
江戸川 (Edogawa),2011-12-10,22:01～23:00,0.138,0.124,0.132,
江戸川 (Edogawa),2011-12-10,21:01～22:00,0.138,0.123,0.132,
江戸川 (Edogawa),2011-12-10,20:01～21:00,0.141,0.126,0.132,
江戸川 (Edogawa),2011-12-10,19:01～20:00,0.140,0.124,0.132,
江戸川 (Edogawa),2011-12-10,18:01～19:00,0.137,0.124,0.132,
江戸川 (Edogawa),2011-12-10,17:01～18:00,0.137,0.125,0.132,
江戸川 (Edogawa),2011-12-10,16:01～17:00,0.139,0.126,0.132,
江戸川 (Edogawa),2011-12-10,15:01～16:00,0.140,0.124,0.132,
江戸川 (Edogawa),2011-12-10,14:01～15:00,0.140,0.124,0.132,
江戸川 (Edogawa),2011-12-10,13:01～14:00,0.136,0.127,0.132,
江戸川 (Edogawa),2011-12-10,12:01～13:00,0.140,0.127,0.133,
江戸川 (Edogawa),2011-12-10,11:01～12:00,0.141,0.126,0.132,
江戸川 (Edogawa),2011-12-10,10:01～11:00,0.139,0.124,0.131,
江戸川 (Edogawa),2011-12-10,09:01～10:00,0.136,0.124,0.130,
江戸川 (Edogawa),2011-12-10,08:01～09:00,0.138,0.120,0.130,
江戸川 (Edogawa),2011-12-10,07:01～08:00,0.137,0.123,0.130,
江戸川 (Edogawa),2011-12-10,06:01～07:00,0.138,0.123,0.130,
江戸川 (Edogawa),2011-12-10,05:01～06:00,0.136,0.122,0.130,
江戸川 (Edogawa),2011-12-10,04:01～05:00,0.138,0.125,0.131,
江戸川 (Edogawa),2011-12-10,03:01～04:00,0.138,0.125,0.131,
江戸川 (Edogawa),2011-12-10,02:01～03:00,0.137,0.122,0.130,
江戸川 (Edogawa),2011-12-10,01:01～02:00,0.138,0.124,0.130,
江戸川 (Edogawa),2011-12-10,00:01～01:00,0.137,0.125,0.131,
江戸川 (Edogawa),2011-12-09,23:01～24:00,0.137,0.123,0.130,
江戸川 (Edogawa),2011-12-09,22:01～23:00,0.135,0.123,0.130,
江戸川 (Edogawa),2011-12-09,21:01～22:00,0.136,0.125,0.130,
江戸川 (Edogawa),2011-12-09,20:01～21:00,0.135,0.123,0.131,
江戸川 (Edogawa),2011-12-09,19:01～20:00,0.140,0.124,0.131,
江戸川 (Edogawa),2011-12-09,18:01～19:00,0.135,0.123,0.130,
江戸川 (Edogawa),2011-12-09,17:01～18:00,0.139,0.125,0.131,
江戸川 (Edogawa),2011-12-09,16:01～17:00,0.139,0.124,0.131,
江戸川 (Edogawa),2011-12-09,15:01～16:00,0.142,0.124,0.132,
江戸川 (Edogawa),2011-12-09,14:01～15:00,0.143,0.124,0.132,
江戸川 (Edogawa),2011-12-09,13:01～14:00,0.140,0.124,0.131,
江戸川 (Edogawa),2011-12-09,12:01～13:00,0.138,0.122,0.132,
江戸川 (Edogawa),2011-12-09,11:01～12:00,0.144,0.127,0.135,
江戸川 (Edogawa),2011-12-09,10:01～11:00,0.148,0.130,0.138,
江戸川 (Edogawa),2011-12-09,09:01～10:00,0.164,0.138,0.147,
江戸川 (Edogawa),2011-12-09,08:01～09:00,0.171,0.145,0.156,
江戸川 (Edogawa),2011-12-09,07:01～08:00,0.169,0.144,0.152,
江戸川 (Edogawa),2011-12-09,06:01～07:00,0.163,0.140,0.150,
江戸川 (Edogawa),2011-12-09,05:01～06:00,0.157,0.136,0.144,
江戸川 (Edogawa),2011-12-09,04:01～05:00,0.161,0.137,0.144,
江戸川 (Edogawa),2011-12-09,03:01～04:00,0.149,0.129,0.139,
江戸川 (Edogawa),2011-12-09,02:01～03:00,0.144,0.130,0.136,
江戸川 (Edogawa),2011-12-09,01:01～02:00,0.145,0.126,0.136,
江戸川 (Edogawa),2011-12-09,00:01～01:00,0.142,0.124,0.132,
江戸川 (Edogawa),2011-12-08,23:01～24:00,0.141,0.126,0.132,
江戸川 (Edogawa),2011-12-08,22:01～23:00,0.138,0.127,0.133,
江戸川 (Edogawa),2011-12-08,21:01～22:00,0.141,0.128,0.133,
江戸川 (Edogawa),2011-12-08,20:01～21:00,0.141,0.124,0.132,
江戸川 (Edogawa),2011-12-08,19:01～20:00,0.138,0.127,0.132,
江戸川 (Edogawa),2011-12-08,18:01～19:00,0.147,0.128,0.135,
江戸川 (Edogawa),2011-12-08,17:01～18:00,0.156,0.136,0.145,
江戸川 (Edogawa),2011-12-08,16:01～17:00,0.157,0.137,0.144,
江戸川 (Edogawa),2011-12-08,15:01～16:00,0.148,0.136,0.144,
江戸川 (Edogawa),2011-12-08,14:01～15:00,0.150,0.138,0.144,
江戸川 (Edogawa),2011-12-08,13:01～14:00,0.148,0.128,0.138,
江戸川 (Edogawa),2011-12-08,12:01～13:00,0.142,0.127,0.135,
江戸川 (Edogawa),2011-12-08,11:01～12:00,0.140,0.130,0.135,
江戸川 (Edogawa),2011-12-08,10:01～11:00,0.140,0.126,0.134,
江戸川 (Edogawa),2011-12-08,09:01～10:00,0.142,0.126,0.134,
江戸川 (Edogawa),2011-12-08,08:01～09:00,0.142,0.129,0.134,
江戸川 (Edogawa),2011-12-08,07:01～08:00,0.140,0.128,0.134,
江戸川 (Edogawa),2011-12-08,06:01～07:00,0.141,0.128,0.134,
江戸川 (Edogawa),2011-12-08,05:01～06:00,0.140,0.128,0.134,
江戸川 (Edogawa),2011-12-08,04:01～05:00,0.146,0.126,0.134,
江戸川 (Edogawa),2011-12-08,03:01～04:00,0.140,0.125,0.134,
江戸川 (Edogawa),2011-12-08,02:01～03:00,0.139,0.128,0.134,
江戸川 (Edogawa),2011-12-08,01:01～02:00,0.142,0.127,0.134,
江戸川 (Edogawa),2011-12-08,00:01～01:00,0.138,0.125,0.132,
江戸川 (Edogawa),2011-12-07,23:01～24:00,0.140,0.125,0.133,
江戸川 (Edogawa),2011-12-07,22:01～23:00,0.140,0.126,0.132,
江戸川 (Edogawa),2011-12-07,21:01～22:00,0.139,0.124,0.132,
江戸川 (Edogawa),2011-12-07,20:01～21:00,0.140,0.125,0.132,
江戸川 (Edogawa),2011-12-07,19:01～20:00,0.140,0.126,0.133,
江戸川 (Edogawa),2011-12-07,18:01～19:00,0.141,0.124,0.133,
江戸川 (Edogawa),2011-12-07,17:01～18:00,0.139,0.124,0.132,
江戸川 (Edogawa),2011-12-07,16:01～17:00,0.140,0.126,0.133,
江戸川 (Edogawa),2011-12-07,15:01～16:00,0.143,0.127,0.134,
江戸川 (Edogawa),2011-12-07,14:01～15:00,0.142,0.128,0.135,
江戸川 (Edogawa),2011-12-07,13:01～14:00,0.143,0.129,0.134,
江戸川 (Edogawa),2011-12-07,12:01～13:00,0.141,0.127,0.134,
江戸川 (Edogawa),2011-12-07,11:01～12:00,0.141,0.125,0.134,
江戸川 (Edogawa),2011-12-07,10:01～11:00,0.140,0.125,0.132,
江戸川 (Edogawa),2011-12-07,09:01～10:00,0.140,0.127,0.133,
江戸川 (Edogawa),2011-12-07,08:01～09:00,0.139,0.125,0.133,
江戸川 (Edogawa),2011-12-07,07:01～08:00,0.138,0.125,0.132,
江戸川 (Edogawa),2011-12-07,06:01～07:00,0.137,0.123,0.132,
江戸川 (Edogawa),2011-12-07,05:01～06:00,0.138,0.123,0.132,
江戸川 (Edogawa),2011-12-07,04:01～05:00,0.139,0.125,0.131,
江戸川 (Edogawa),2011-12-07,03:01～04:00,0.136,0.124,0.130,
江戸川 (Edogawa),2011-12-07,02:01～03:00,0.137,0.125,0.131,
江戸川 (Edogawa),2011-12-07,01:01～02:00,0.139,0.124,0.131,
江戸川 (Edogawa),2011-12-07,00:01～01:00,0.138,0.124,0.131,
江戸川 (Edogawa),2011-12-06,23:01～24:00,0.136,0.126,0.131,
江戸川 (Edogawa),2011-12-06,22:01～23:00,0.139,0.124,0.132,
江戸川 (Edogawa),2011-12-06,21:01～22:00,0.142,0.125,0.133,
江戸川 (Edogawa),2011-12-06,20:01～21:00,0.145,0.130,0.138,
江戸川 (Edogawa),2011-12-06,19:01～20:00,0.147,0.131,0.140,
江戸川 (Edogawa),2011-12-06,18:01～19:00,0.154,0.135,0.142,
江戸川 (Edogawa),2011-12-06,17:01～18:00,0.149,0.134,0.142,
江戸川 (Edogawa),2011-12-06,16:01～17:00,0.146,0.134,0.140,
江戸川 (Edogawa),2011-12-06,15:01～16:00,0.145,0.130,0.136,
江戸川 (Edogawa),2011-12-06,14:01～15:00,0.141,0.129,0.134,
江戸川 (Edogawa),2011-12-06,13:01～14:00,0.143,0.126,0.133,
江戸川 (Edogawa),2011-12-06,12:01～13:00,0.140,0.127,0.134,
江戸川 (Edogawa),2011-12-06,11:01～12:00,0.142,0.127,0.134,
江戸川 (Edogawa),2011-12-06,10:01～11:00,0.142,0.128,0.134,
江戸川 (Edogawa),2011-12-06,09:01～10:00,0.139,0.127,0.134,
江戸川 (Edogawa),2011-12-06,08:01～09:00,0.143,0.127,0.134,
江戸川 (Edogawa),2011-12-06,07:01～08:00,0.141,0.127,0.134,
江戸川 (Edogawa),2011-12-06,06:01～07:00,0.140,0.128,0.134,
江戸川 (Edogawa),2011-12-06,05:01～06:00,0.140,0.127,0.135,
江戸川 (Edogawa),2011-12-06,04:01～05:00,0.142,0.127,0.134,
江戸川 (Edogawa),2011-12-06,03:01～04:00,0.144,0.127,0.133,
江戸川 (Edogawa),2011-12-06,02:01～03:00,0.142,0.128,0.134,
江戸川 (Edogawa),2011-12-06,01:01～02:00,0.139,0.127,0.133,
江戸川 (Edogawa),2011-12-06,00:01～01:00,0.140,0.128,0.134,
江戸川 (Edogawa),2011-12-05,23:01～24:00,0.140,0.126,0.134,
江戸川 (Edogawa),2011-12-05,22:01～23:00,0.143,0.127,0.134,
江戸川 (Edogawa),2011-12-05,21:01～22:00,0.141,0.127,0.134,
江戸川 (Edogawa),2011-12-05,20:01～21:00,0.139,0.129,0.133,
江戸川 (Edogawa),2011-12-05,19:01～20:00,0.143,0.127,0.135,
江戸川 (Edogawa),2011-12-05,18:01～19:00,0.143,0.127,0.135,
江戸川 (Edogawa),2011-12-05,17:01～18:00,0.142,0.130,0.135,
江戸川 (Edogawa),2011-12-05,16:01～17:00,0.142,0.128,0.134,
江戸川 (Edogawa),2011-12-05,15:01～16:00,0.142,0.129,0.135,
江戸川 (Edogawa),2011-12-05,14:01～15:00,0.143,0.129,0.136,
江戸川 (Edogawa),2011-12-05,13:01～14:00,0.143,0.131,0.136,
江戸川 (Edogawa),2011-12-05,12:01～13:00,0.142,0.130,0.136,
江戸川 (Edogawa),2011-12-05,11:01～12:00,0.142,0.126,0.135,
江戸川 (Edogawa),2011-12-05,10:01～11:00,0.142,0.125,0.135,
江戸川 (Edogawa),2011-12-05,09:01～10:00,0.141,0.128,0.134,
江戸川 (Edogawa),2011-12-05,08:01～09:00,0.139,0.127,0.134,
江戸川 (Edogawa),2011-12-05,07:01～08:00,0.142,0.125,0.133,
江戸川 (Edogawa),2011-12-05,06:01～07:00,0.142,0.126,0.133,
江戸川 (Edogawa),2011-12-05,05:01～06:00,0.139,0.127,0.133,
江戸川 (Edogawa),2011-12-05,04:01～05:00,0.140,0.127,0.134,
江戸川 (Edogawa),2011-12-05,03:01～04:00,0.142,0.127,0.133,
江戸川 (Edogawa),2011-12-05,02:01～03:00,0.142,0.127,0.134,
江戸川 (Edogawa),2011-12-05,01:01～02:00,0.138,0.128,0.133,
江戸川 (Edogawa),2011-12-05,00:01～01:00,0.140,0.127,0.133,
